Tracking 19489 objects as of 22-Jan-2019
HD Live streaming from Space Station
objects crossing your sky now

FENGYUN 1C DEB

Track FENGYUN 1C DEB now!
10-day predictions


NORAD ID: 31626
Int'l Code: 1999-025CAG
Perigee: 779.4 km
Apogee: 818.3 km
Inclination: 101.3 °
Period: 100.7 minutes
Semi major axis: 7169 km
RCS: 0.0152 m2 (small)
Launch date: May 10, 1999
Source: People's Republic of China (PRC)
Launch site: Taiyaun Space Center, China (TSC)

Note: This is SATELLITE DEBRIS
aabbcc
Your satellite tracking list
Your tracking list is empty




NASA's NSSDC Master Catalog

Two Line Element Set (TLE):
1 31626U 99025CAG 19021.26171603 +.00000934 +00000-0 +38672-3 0  9997
2 31626 101.3073 188.2807 0027097 076.1777 284.2408 14.30014232608933
Source of the keplerian elements: AFSPC